Weather History for Edinburgh Airport, United Kingdom

Change the Weather History Date:

Wednesday, December 26, 2012

  Actual Average Record
Temperature  
Mean Temperature 39 °F -  
Max Temperature 41 °F 43 °F 55 °F (2011)
Min Temperature 37 °F 33 °F 19 °F (2000)
Degree Days  
Heating Degree Days 26    
Moisture  
Dew Point 38 °F    
Average Humidity 91    
Maximum Humidity 100    
Minimum Humidity 81    
Precipitation  
Precipitation 0.00 in 0.07 in - ()
Sea Level Pressure  
Sea Level Pressure 29.35 in    
Wind  
Wind Speed 10 mph ()    
Max Wind Speed 20 mph    
Max Gust Speed -    
Visibility 5.9 miles    
Events Rain    
Averages and records for this station are not official NWS values.
T = Trace of Precipitation, MM = Missing Value Source: Averaged Metar Reports

Daily Weather History Graph

Daily Weather History Graph

Search for Another Location

Airport:

Trip Planner

Search our weather history database for the weather conditions in past years. The results will help you decide how hot, cold, wet, or windy it might be!

Date:

Astronomy

Dec. 26, 2012 Rise Set
Actual Time 8:44 AM GMT 3:43 PM GMT
Civil Twilight 7:57 AM GMT 4:31 PM GMT
Nautical Twilight 7:08 AM GMT 5:20 PM GMT
Astronomical Twilight 6:22 AM GMT 6:05 PM GMT
Moon 2:32 PM GMT (12/26) 6:49 AM GMT (12/26)
Length of Visible Light 8h 33m
Length of Day
6h 59m
Waxing Gibbous, 97% of the Moon is Illuminated
Dec 26
Waxing Gibbous
Dec 28
Full
Jan 5
Last Quarter
Jan 11
New
Jan 18
First Quarter

Hourly Weather History & Observations

Time (GMT) Temp. Windchill Dew Point Humidity Pressure Visibility Wind Dir Wind Speed Gust Speed Precip Events Conditions
12:20 AM 41.0 °F 33.9 °F 37.4 °F 87% 29.30 in 6.2 mi WSW 12.7 mph - N/A   Mostly Cloudy
12:50 AM 41.0 °F 32.5 °F 37.4 °F 87% 29.30 in 6.2 mi WSW 17.3 mph - N/A   Partly Cloudy
1:20 AM 41.0 °F 34.3 °F 37.4 °F 87% 29.33 in 6.2 mi SW 11.5 mph - N/A   Partly Cloudy
1:50 AM 41.0 °F 32.5 °F 37.4 °F 87% 29.30 in 6.2 mi WSW 17.3 mph - N/A   Partly Cloudy
2:20 AM 41.0 °F 33.5 °F 37.4 °F 87% 29.30 in - WSW 13.8 mph - N/A   Clear
2:50 AM 41.0 °F 34.3 °F 37.4 °F 87% 29.30 in 6.2 mi WSW 11.5 mph - N/A   Scattered Clouds
3:20 AM 39.2 °F 32.5 °F 35.6 °F 87% 29.33 in 6.2 mi WSW 10.4 mph - N/A   Mostly Cloudy
3:50 AM 39.2 °F 32.5 °F 35.6 °F 87% 29.33 in 6.2 mi SW 10.4 mph - N/A   Scattered Clouds
4:20 AM 41.0 °F 34.7 °F 35.6 °F 81% 29.33 in 6.2 mi SW 10.4 mph - N/A   Mostly Cloudy
4:50 AM 39.2 °F 33.6 °F 37.4 °F 93% 29.33 in 6.2 mi SW 8.1 mph - N/A   Mostly Cloudy
5:20 AM 41.0 °F 34.3 °F 37.4 °F 87% 29.30 in 6.2 mi SW 11.5 mph - N/A   Mostly Cloudy
5:50 AM 41.0 °F 33.9 °F 37.4 °F 87% 29.30 in 6.2 mi SW 12.7 mph - N/A   Scattered Clouds
6:20 AM 39.2 °F 33.0 °F 35.6 °F 87% 29.30 in - SW 9.2 mph - N/A   Clear
6:50 AM 39.2 °F 35.0 °F 37.4 °F 93% 29.33 in 6.2 mi WSW 5.8 mph - N/A   Scattered Clouds
7:20 AM 39.2 °F 37.0 °F 37.4 °F 93% 29.36 in 6.2 mi West 3.5 mph - N/A   Mostly Cloudy
7:50 AM 39.2 °F 37.0 °F 37.4 °F 93% 29.36 in 6.2 mi WSW 3.5 mph - N/A   Mostly Cloudy
8:20 AM 41.0 °F 39.0 °F 39.2 °F 93% 29.39 in 6.2 mi Variable 3.5 mph - N/A   Mostly Cloudy
8:50 AM 39.2 °F 37.0 °F 39.2 °F 100% 29.39 in 6.2 mi West 3.5 mph - N/A   Mostly Cloudy
9:20 AM 39.2 °F 37.0 °F 39.2 °F 100% 29.42 in 6.2 mi West 3.5 mph - N/A   Mostly Cloudy
9:50 AM 39.2 °F 37.0 °F 39.2 °F 100% 29.44 in 1.9 mi Variable 3.5 mph - N/A   Light Drizzle
10:20 AM 39.2 °F 37.0 °F 39.2 °F 100% 29.44 in 5.6 mi East 3.5 mph - N/A   Mostly Cloudy
10:50 AM 39.2 °F - 39.2 °F 100% 29.44 in 6.2 mi Variable 2.3 mph - N/A   Mostly Cloudy
11:20 AM 41.0 °F - 39.2 °F 93% 29.44 in 5.6 mi Variable 2.3 mph - N/A   Light Drizzle
11:50 AM 41.0 °F 39.0 °F 39.2 °F 93% 29.44 in 6.2 mi Variable 3.5 mph - N/A   Mostly Cloudy
12:20 PM 41.0 °F 37.1 °F 39.2 °F 93% 29.44 in 6.2 mi ESE 5.8 mph - N/A   Mostly Cloudy
12:50 PM 41.0 °F 37.1 °F 39.2 °F 93% 29.44 in 6.2 mi SE 5.8 mph - N/A   Mostly Cloudy
1:20 PM 41.0 °F 36.4 °F 39.2 °F 93% 29.42 in 6.2 mi ESE 6.9 mph - N/A   Mostly Cloudy
1:50 PM 41.0 °F 35.2 °F 39.2 °F 93% 29.39 in 6.2 mi East 9.2 mph - N/A   Mostly Cloudy
2:20 PM 41.0 °F 37.1 °F 39.2 °F 93% 29.39 in 6.2 mi East 5.8 mph - N/A   Mostly Cloudy
2:50 PM 41.0 °F 36.4 °F 37.4 °F 87% 29.39 in 6.2 mi East 6.9 mph - N/A   Mostly Cloudy
3:20 PM 41.0 °F 35.8 °F 37.4 °F 87% 29.36 in 6.2 mi East 8.1 mph - N/A   Scattered Clouds
3:50 PM 41.0 °F 34.3 °F 37.4 °F 87% 29.36 in 6.2 mi East 11.5 mph - N/A   Mostly Cloudy
4:20 PM 41.0 °F 34.3 °F 37.4 °F 87% 29.36 in 6.2 mi East 11.5 mph - N/A   Mostly Cloudy
4:50 PM 39.2 °F 32.0 °F 37.4 °F 93% 29.33 in 6.2 mi East 11.5 mph - N/A Rain Light Rain
5:20 PM 39.2 °F 34.2 °F 37.4 °F 93% 29.33 in 4.3 mi ENE 6.9 mph - N/A Rain Light Rain
5:50 PM 39.2 °F 33.6 °F 37.4 °F 93% 29.33 in 5.6 mi ENE 8.1 mph - N/A Rain Light Rain
6:20 PM 39.2 °F 33.6 °F 37.4 °F 93% 29.33 in 6.2 mi ENE 8.1 mph - N/A Rain Light Rain
6:50 PM 39.2 °F 30.8 °F 37.4 °F 93% 29.33 in 6.2 mi East 15.0 mph - N/A Rain Light Rain
7:20 PM 39.2 °F 29.6 °F 37.4 °F 93% 29.30 in 6.2 mi ENE 19.6 mph - N/A Rain Light Rain
7:50 PM 39.2 °F 30.5 °F 37.4 °F 93% 29.30 in 6.2 mi ENE 16.1 mph - N/A Rain Light Rain
8:20 PM 39.2 °F 30.8 °F 37.4 °F 93% 29.30 in 6.2 mi East 15.0 mph - N/A Rain Light Rain
8:50 PM 39.2 °F 30.2 °F 37.4 °F 93% 29.30 in 5.6 mi East 17.3 mph - N/A Rain Light Rain
9:20 PM 39.2 °F 31.2 °F 37.4 °F 93% 29.30 in 5.6 mi East 13.8 mph - N/A Rain Light Rain
9:50 PM 37.4 °F 27.8 °F 35.6 °F 93% 29.30 in 5.0 mi East 17.3 mph - N/A Rain Rain
10:20 PM 37.4 °F 28.2 °F 35.6 °F 93% 29.30 in 5.0 mi ENE 16.1 mph - N/A Rain Light Rain
10:50 PM 37.4 °F 28.5 °F 35.6 °F 93% 29.30 in 5.0 mi ENE 15.0 mph - N/A Rain Light Rain
11:20 PM 37.4 °F 28.2 °F 35.6 °F 93% 29.33 in 5.0 mi ENE 16.1 mph - N/A Rain Rain
11:50 PM 39.2 °F 29.8 °F 35.6 °F 87% 29.33 in 5.0 mi ENE 18.4 mph - N/A Rain Light Rain